[[{"header":{"parameterUnit":"m.s-1","parameterCategory":1,"la1":30.2992,"la2":30.254,"lo1":-89.0895,"lo2":-89.0443,"dy":0.0025,"dx":0.0025,"nx":19,"ny":19,"refTime":"2026-05-20T09:00:00:Z","depth":0,"parameterNumber":2,"parameterNumberName":"U-component_of_WINDS"},"data":[0,0,0,-0.7228,-0.7229,-0.7293,-0.7294,-0.7367,-0.7368,0,0,0,0,0,0,0,0,0,0,0,-0.7201,-0.7202,-0.7227,-0.7229,-0.7293,-0.7294,-0.7367,-0.7368,0,0,0,0,0,0,0,0,0,0,0,-0.7201,-0.7202,-0.7202,-0.7229,-0.7293,-0.7294,-0.7367,-0.7322,0,0,0,0,0,0,0,0,0,0,-0.7261,-0.7229,-0.7201,-0.7202,-0.7229,-0.7293,-0.7294,-0.732,-0.7325,-0.7334,0,-0.7338,0,-0.7354,-0.7372,-0.7372,0,0,0,-0.7235,-0.7225,-0.7249,-0.7202,-0.723,-0.7293,-0.7266,-0.7323,-0.7328,-0.734,-0.7339,-0.7342,-0.7355,-0.7372,-0.7373,-0.7402,-0.7402,0,0,-0.7231,-0.721,-0.7245,-0.7252,-0.724,-0.7264,-0.7268,-0.7326,-0.7325,-0.734,-0.7344,-0.7356,-0.7373,-0.7373,-0.7402,-0.7402,0,0,0,-0.7217,-0.7207,-0.7229,-0.7249,-0.7261,-0.7265,-0.727,-0.7322,-0.7331,-0.7345,-0.7357,-0.7373,-0.7374,-0.7402,-0.7402,-0.7374,0,0,0,-0.7215,-0.7199,-0.7227,-0.7215,-0.726,-0.7292,-0.7265,-0.7327,-0.7334,-0.7357,-0.7373,-0.7375,-0.7403,-0.7402,-0.7376,-0.7365,0,0,0,-0.72,-0.7197,-0.7204,-0.7214,-0.7241,-0.7292,-0.7304,-0.7329,-0.7342,-0.7372,-0.7375,-0.7403,-0.7402,-0.7377,-0.7367,-0.7367,0,0,0,-0.7177,-0.7179,-0.7203,-0.7209,-0.724,-0.7273,-0.7304,-0.7331,-0.7354,-0.7373,-0.7403,-0.7402,-0.7377,-0.7368,-0.7367,-0.7362,-0.7358,0,0,-0.7167,-0.7177,-0.7182,-0.7206,-0.7229,-0.7265,-0.7286,-0.7328,-0.7351,-0.7384,-0.7385,-0.7375,-0.7367,-0.7367,-0.7342,-0.7338,0,0,0,-0.7172,-0.7176,-0.7187,-0.7207,-0.7238,-0.7265,-0.7306,-0.7321,-0.735,-0.7363,-0.7376,-0.7372,-0.7372,-0.7371,-0.7368,-0.737,-0.7401,-0.7401,-0.7401,-0.7127,-0.7156,-0.7167,-0.7204,-0.7223,-0.7265,-0.7284,-0.7313,-0.7337,-0.7339,-0.7349,-0.733,-0.7328,-0.7326,-0.7328,-0.7349,-0.7349,-0.7349,-0.7349,-0.7115,-0.7125,-0.7156,-0.7178,-0.7209,-0.7229,-0.727,-0.7286,-0.731,-0.7325,-0.7328,-0.7342,-0.7321,-0.7324,-0.7347,-0.7347,-0.7348,-0.7348,-0.7348,-0.7089,-0.7099,-0.7117,-0.7149,-0.7172,-0.7209,-0.723,-0.7258,-0.7285,-0.7287,-0.73,-0.7301,-0.7305,-0.7291,-0.7291,-0.7291,-0.7291,-0.7291,-0.7291,-0.7055,-0.7076,-0.709,-0.7123,-0.714,-0.7165,-0.7208,-0.7226,-0.7253,-0.7272,-0.7272,-0.7296,-0.7313,-0.7317,-0.729,-0.729,-0.729,-0.729,-0.729,-0.7032,-0.7041,-0.7062,-0.7078,-0.712,-0.7141,-0.7176,-0.721,-0.7229,-0.7238,-0.7262,-0.727,-0.7282,-0.7285,-0.7288,-0.7256,-0.7256,-0.7256,-0.7256,-0.701,-0.7018,-0.7046,-0.7071,-0.7098,-0.7132,-0.7156,-0.7189,-0.7226,-0.724,-0.7249,-0.7256,-0.7257,-0.7268,-0.7271,-0.7275,-0.724,-0.724,-0.724,-0.6998,-0.701,-0.7024,-0.7058,-0.7093,-0.7123,-0.7146,-0.7175,-0.7219,-0.724,-0.7251,-0.7252,-0.7263,-0.7265,-0.7286,-0.729,-0.7297,0,0]},{"header":{"parameterUnit":"m.s-1","parameterCategory":1,"la1":30.2992,"la2":30.254,"lo1":-89.0895,"lo2":-89.0443,"dy":0.0025,"dx":0.0025,"nx":19,"ny":19,"refTime":"2026-05-20T09:00:00:Z","depth":0,"parameterNumber":3,"parameterNumberName":"V-component_of_WINDS"},"data":[0,0,0,5.639,5.6393,5.6525,5.6526,5.6696,5.6698,0,0,0,0,0,0,0,0,0,0,0,5.6356,5.6358,5.639,5.6394,5.6525,5.6526,5.6696,5.6698,0,0,0,0,0,0,0,0,0,0,0,5.6356,5.6357,5.6359,5.6394,5.6525,5.6526,5.6696,5.6595,0,0,0,0,0,0,0,0,0,0,5.6466,5.6441,5.6357,5.6359,5.6395,5.6525,5.6526,5.659,5.6601,5.6639,0,5.6677,0,5.6691,5.671,5.671,0,0,0,5.6389,5.6431,5.6463,5.636,5.6396,5.6525,5.6464,5.6596,5.6609,5.6654,5.6679,5.6686,5.6693,5.6711,5.6712,5.6954,5.6955,0,0,5.6382,5.6382,5.6454,5.6471,5.6455,5.646,5.6469,5.6603,5.663,5.668,5.669,5.6696,5.6712,5.6713,5.6953,5.6955,0,0,0,5.6364,5.6377,5.6405,5.6464,5.6488,5.6464,5.6474,5.6624,5.6633,5.6691,5.6698,5.6713,5.6715,5.6952,5.6954,5.7022,0,0,0,5.6359,5.6367,5.6402,5.6404,5.6486,5.6559,5.6492,5.6624,5.6639,5.6697,5.6713,5.6717,5.695,5.6953,5.7017,5.7054,0,0,0,5.6346,5.6365,5.6386,5.6403,5.646,5.6556,5.6573,5.6627,5.6644,5.6711,5.6718,5.6949,5.6952,5.7013,5.7047,5.7118,0,0,0,5.6331,5.6444,5.6388,5.6516,5.6459,5.6599,5.6572,5.6675,5.6741,5.6714,5.695,5.6953,5.7011,5.7042,5.7114,5.7179,5.7206,0,0,5.6474,5.6462,5.6537,5.649,5.6641,5.6579,5.6738,5.6796,5.68,5.6901,5.6907,5.7019,5.7046,5.7117,5.736,5.7382,0,0,0,5.6582,5.6637,5.6676,5.6741,5.679,5.6833,5.6867,5.6888,5.6975,5.6854,5.7064,5.708,5.7122,5.7153,5.7172,5.7207,5.6968,5.6968,5.6967,5.6785,5.6786,5.6911,5.6929,5.699,5.7025,5.7074,5.7108,5.7089,5.7139,5.7169,5.7317,5.7353,5.7367,5.7404,5.7204,5.7204,5.7204,5.7204,5.6994,5.7071,5.7045,5.7158,5.7157,5.7249,5.7286,5.7269,5.7353,5.7294,5.7331,5.7265,5.7391,5.7423,5.7209,5.7209,5.7208,5.7207,5.7207,5.7127,5.7164,5.719,5.7282,5.7353,5.7364,5.7447,5.7443,5.7439,5.7475,5.7506,5.7505,5.7503,5.749,5.7491,5.7491,5.7492,5.7492,5.7493,5.7255,5.7281,5.7354,5.7415,5.7455,5.7507,5.7542,5.758,5.7621,5.7611,5.7611,5.7587,5.7404,5.7358,5.75,5.7499,5.7498,5.7497,5.7497,5.7466,5.7418,5.753,5.757,5.7641,5.771,5.7704,5.7782,5.7813,5.7853,5.7821,5.7687,5.7673,5.7658,5.762,5.7821,5.7821,5.7821,5.7821,5.7578,5.7571,5.7685,5.7749,5.7812,5.7818,5.794,5.7967,5.7987,5.8005,5.7975,5.7924,5.7909,5.7904,5.7883,5.7848,5.8103,5.8103,5.8103,5.7708,5.7707,5.7815,5.7836,5.7891,5.7937,5.8052,5.8124,5.8136,5.8115,5.8019,5.8007,5.7925,5.7898,5.7875,5.7844,5.7778,0,0]}]]